Regional Weather Roundup
Issued by NWS Sterling, VA

Home | Current Version | Previous Version | Graphics & Text | Print | Product List | Glossary On
Versions: 1 2 3 4 5 6 7 8 9 10 11 12 13 14 15 16 17 18 19 20 21 22 23 24 25 26 27 28 29 30 31 32 33 34 35 36 37 38 39 40 41 42 43 44 45 46 47 48 49 50
764
ASUS41 KLWX 240810
RWRLWX

REGIONAL WEATHER ROUNDUP
NATIONAL WEATHER SERVICE BALTIMORE MD/WASHINGTON DC
400 AM EDT FRI MAR 24 2017

Note: "FAIR" indicates few or no clouds below 12,000 feet
with no significant weather and/or obstructions to visibility.
 TC=TEMPERATURE CELSIUS

 * =Non NWS site. Station does not report precipitation (e.g. rain,
    snow, etc.), thunder, or fog.

DCZ001-MDZ009-015-VAZ040>042-051-053>054-240900-
WASHINGTON METRO

CITY           SKY/WX    TMP DP  RH WIND       PRES   REMARKS
WASHINGTON NAT PTCLDY    37  25  61 S13       30.50F WCI  29
DULLES         CLOUDY    34  19  54 S7        30.47F
ANDREWS AFB    PTCLDY    32  23  68 S7        30.48F
FT BELVOIR     CLEAR     35  22  60 S7        30.50F
QUANTICO       CLEAR     38  27  64 S13       30.52F
LEESBURG*      CLOUDY    36  25  64 S8        30.46F
MANASSAS*      CLOUDY    29  23  78 S6        30.49F
GAITHERSBURG*  CLOUDY    34  16  47 S7        30.50F

$$

MDZ006>007-011-014-240900-
BALTIMORE METRO

CITY           SKY/WX    TMP DP  RH WIND       PRES   REMARKS
BWI AIRPORT    PTCLDY    31  19  61 CALM      30.49F
MD SCIENCE CTR   N/A     36  17  46 MISG      30.49F
ANNAPOLIS      PTCLDY    39  26  59 S7        30.50F

$$

MDZ012-015-019>023-240900-
MARYLAND EASTERN SHORE

CITY           SKY/WX    TMP DP  RH WIND       PRES   REMARKS
OCEAN CITY     CLEAR     38  26  62 VRB6      30.54F
SALISBURY      CLEAR     27  25  92 SE3       30.52F
EASTON*        CLEAR     34  29  82 S7        30.54F

$$

MDZ017>025-240900-
SOUTHERN MARYLAND

CITY           SKY/WX    TMP DP  RH WIND       PRES   REMARKS
PATUXENT RIVER CLEAR     36  31  82 S6        30.51F
ST INIGOES     CLEAR     38  30  73 S9        30.52F
LEONARDTOWN*   NOT AVBL

$$

MDZ003>005-240900-
NORTH CENTRAL MARYLAND

CITY           SKY/WX    TMP DP  RH WIND       PRES   REMARKS
FREDERICK*     NOT AVBL
HAGERSTOWN APT PTCLDY    37  20  50 S9        30.39F
WESTMINSTER*   NOT AVBL

$$

MDZ501>502-240900-
WESTERN MARYLAND

CITY           SKY/WX    TMP DP  RH WIND       PRES   REMARKS
OAKLAND*       NOT AVBL
CUMBERLAND*    NOT AVBL

$$

VAZ025>031-240900-
SHENANDOAH VALLEY

CITY           SKY/WX    TMP DP  RH WIND       PRES   REMARKS
WINCHESTER*    CLOUDY    34  18  51 S6        30.40F
FRONT ROYAL*     N/A    N/A N/A N/A MISG        N/A
LURAY*         CLOUDY    43  23  45 SW10      30.41S
NEW MARKET*    CLOUDY    39  19  44 SW8       30.40F
STAUNTON*      CLOUDY    38  19  47 S8        30.44F
WAYNESBORO*    CLOUDY    39  21  47 SW3       30.43S

$$

WVZ021-048>050-054>055-240900-
EASTERN WEST VIRGINIA PANHANDLE

CITY           SKY/WX    TMP DP  RH WIND       PRES   REMARKS
MARTINSBURG    PTCLDY    29  19  66 CALM      30.39F
PETERSBURG*    PTCLDY    45  21  38 S9        30.36F

$$

VAZ036>039-050-240900-
CENTRAL FOOTHILLS

CITY           SKY/WX    TMP DP  RH WIND       PRES   REMARKS
CHARLOTTESVILL PTCLDY    38  20  48 S13       30.47F
CULPEPER*      PTCLDY    30  22  70 SE3       30.50S
ORANGE*        PTCLDY    32  21  64 CALM      30.50S
GORDONSVILLE*  CLOUDY    33  21  63 SW3       30.48F
WARRENTON*     CLOUDY    33  17  52 CALM      30.48F

$$

VAZ055>057-240900-
NORTH AND CENTRAL PIEDMONT

CITY           SKY/WX    TMP DP  RH WIND       PRES   REMARKS
FREDERICKSBRG* CLEAR     34  26  73 S6        30.51S
STAFFORD*      CLEAR     32  23  70 CALM      30.54F

$$

NCZ024-NYZ072-PAZ021-071-VAZ022-071-240900-
OTHER REGIONAL OBSERVATIONS

CITY           SKY/WX    TMP DP  RH WIND       PRES   REMARKS
NEW YORK CITY  PTCLDY    37  15  40 W6        30.51F
PHILADELPHIA   CLOUDY    33  25  72 SW6       30.50F
PITTSBURGH     CLOUDY    43  18  36 S7        30.20F
ROANOKE        CLOUDY    38  21  50 CALM      30.48S
RICHMOND       CLEAR     32  25  75 S7        30.53S
RALEIGH        PTCLDY    39  27  62 S5        30.53F

$$

ANZ530>537-240900-
MARINE OBSERVATIONS

STATION/POSITION TIME  TEMP    WIND        PRES
                       AIR SEA DIR/SP/G
                 (UTC) (F)     (DEG/KT/KT) (MB)
THOMAS PT LIGHT  0800   40 43  200/ 19/ 20   N/A
BALT KEY BRIDGE  0748   37     200/  8/ 10 1032.6F
COVE POINT       0748   38     200/ 12/ 14 1033.8F
LEWISETTA        0748   37 46  220/  8/  9 1033.5F
SOLOMONS ISLAND  0748   39 44  180/  7/  9   N/A
PINEY POINT      0748          200/  9/ 10   N/A

$$





USA.gov is the U.S. government's official web portal to all federal, state and local government web resources and services.